Wind_Speed
9 10 10 10 12 14 15 17 18 19 19 19 19 20 20 22 27 21 14 8 5 14 11 9 9 10 16 14 11 11 11 17 20 14 15 9 14 15 10 13 13 9 7 6 9
7 8 10 11 13 15 16 19 21 21 20 19 19 18 19 22 25 20 14 10 9 5 11 17 13 12 11 13 9 14 15 23 19 13 14 13 15 15 9 12 12 13 10 4 7
7 8 10 11 13 15 17 20 21 22 21 19 18 18 17 18 9 1 0 2 8 11 7 11 10 13 14 9 15 12 22 17 11 14 17 16 17 17 15 19 14 17 13 11 10
8 9 10 12 13 15 17 21 23 22 22 18 16 16 16 7 6 3 5 3 3 10 8 11 10 14 13 15 16 15 14 17 17 15 17 17 18 21 20 18 17 20 19 16 16
9 11 12 13 15 17 19 20 23 23 19 18 14 12 9 6 9 3 7 2 3 9 11 11 12 11 13 9 15 17 19 18 17 19 22 22 24 25 24 19 21 20 18 18 18
8 12 14 15 17 20 23 23 21 20 17 21 12 7 7 9 0 2 4 4 8 10 10 10 6 9 8 10 12 3 9 14 13 16 19 20 22 22 17 19 20 20 18 19 19
10 11 14 18 20 22 22 24 19 21 19 10 5 10 9 14 3 4 6 7 8 14 12 12 9 9 4 8 10 10 14 15 17 18 18 16 22 24 22 21 21 20 17 20 19
8 10 14 19 22 23 22 18 21 13 5 5 10 11 7 5 7 11 9 12 13 11 12 9 9 12 10 9 10 10 12 15 6 5 9 10 16 13 13 14 16 16 16 17 18
9 12 16 19 21 22 18 17 6 3 4 9 7 5 6 4 5 1 7 5 5 11 9 3 6 11 7 11 11 10 10 11 11 11 13 12 12 8 5 9 12 14 14 14 14
9 13 16 18 21 17 16 4 1 1 2 3 2 4 5 2 5 4 3 6 6 8 9 9 8 9 10 10 9 7 10 11 10 4 14 19 19 15 15 14 15 14 13 13 14
9 12 16 18 15 13 13 1 2 5 3 8 8 11 15 12 12 5 1 6 8 10 11 13 11 15 16 16 17 14 13 17 16 16 19 21 22 20 18 18 17 17 17 16 17
9 12 15 18 7 11 12 5 4 5 8 5 8 8 14 9 5 8 8 8 10 13 8 7 15 14 12 13 16 16 15 16 16 12 12 19 22 18 17 19 22 20 18 18 16
10 11 13 16 3 8 14 7 2 3 5 3 3 3 3 5 3 3 8 11 10 13 12 14 5 3 12 13 13 14 14 12 13 14 19 21 23 17 17 25 23 21 21 20 19
9 9 12 7 3 3 3 6 7 7 3 3 2 3 3 3 4 2 6 7 8 10 9 10 10 11 9 12 10 10 3 6 9 9 9 6 7 12 10 12 18 20 19 19 19
8 7 10 9 2 1 5 10 2 4 4 3 4 3 1 5 7 4 5 8 8 8 6 2 5 6 13 17 10 9 3 7 10 12 14 13 8 3 7 7 13 16 19 19 18
7 8 8 6 3 3 10 8 5 4 2 3 2 5 10 1 1 4 5 5 4 7 11 13 4 6 9 5 9 3 8 12 12 9 8 12 11 4 3 7 5 7 4 5 8
7 7 5 4 5 12 8 4 4 4 2 4 3 8 11 6 4 4 7 8 7 5 7 4 13 11 10 10 8 10 8 5 7 5 6 1 6 12 11 11 12 9 11 9 8
5 4 2 3 8 9 4 4 6 4 3 5 5 13 6 6 3 6 5 10 10 9 7 6 5 8 9 13 3 10 11 6 6 4 6 3 7 2 5 4 6 7 10 11 9
2 3 3 9 9 7 4 3 5 3 4 9 12 9 6 2 6 6 8 8 3 10 7 4 5 4 8 4 9 6 7 4 6 13 7 8 9 6 3 6 9 11 12 14 16
1 3 5 9 11 4 1 3 1 3 6 4 5 3 7 7 8 7 6 4 4 3 7 3 8 5 3 6 6 7 2 3 5 4 5 4 7 1 11 12 12 12 13 14 15
2 2 3 11 5 2 3 3 1 1 5 4 4 7 9 11 9 10 7 5 8 7 7 7 8 5 6 10 8 7 7 3 2 5 4 5 2 6 7 9 11 12 12 13 13
1 1 5 9 2 2 4 2 3 3 2 4 5 8 11 12 16 15 16 9 9 9 7 3 5 11 16 8 8 10 8 8 4 4 2 3 2 7 8 10 10 10 11 11 11
2 2 3 4 3 4 4 3 1 2 4 3 4 5 9 12 8 11 16 15 5 4 6 7 5 7 8 7 10 11 7 5 3 2 3 4 2 8 5 10 8 9 9 11 12
2 3 2 3 4 6 3 3 3 2 2 3 6 6 9 10 13 11 14 7 5 12 4 8 7 11 9 2 2 9 11 10 5 3 4 6 12 5 7 5 3 8 9 10 12
2 2 2 4 4 4 2 1 1 2 2 1 3 1 5 6 14 12 18 18 17 4 2 3 7 12 5 2 13 4 7 8 11 10 6 9 11 13 12 4 6 9 8 11 12
2 2 2 5 4 3 2 1 2 1 3 2 3 10 12 9 13 14 11 12 10 4 3 1 4 10 7 8 16 9 10 8 8 5 9 12 12 4 8 6 11 12 10 8 11
2 1 2 4 4 2 3 2 2 7 4 7 9 14 11 7 10 17 17 16 17 14 4 3 5 10 5 8 8 10 11 5 4 4 4 8 12 9 9 4 13 12 12 12 9
Wind_Direction
353 351 346 335 336 335 336 333 332 329 328 327 325 324 324 323 319 309 260 248 217 220 177 162 172 176 190 216 222 233 243 248 247 229 246 238 246 246 269 254 227 231 264 333 328
349 352 348 338 335 335 334 332 328 326 326 326 324 322 323 329 315 286 261 244 209 180 193 188 188 181 196 208 208 220 233 248 261 252 253 250 248 262 225 223 237 245 249 250 310
347 343 337 332 328 333 333 327 325 323 322 322 322 318 322 335 302 70 105 113 207 179 208 218 219 209 223 221 214 226 247 264 246 259 255 255 259 257 245 255 246 262 273 268 275
335 334 331 328 328 327 327 327 324 320 316 316 317 315 321 318 305 124 140 62 208 186 186 179 199 208 228 220 223 251 244 261 261 253 254 251 257 263 261 258 267 267 274 276 268
328 326 327 325 323 323 322 323 321 317 315 311 309 308 316 250 260 246 218 252 154 184 197 195 197 214 229 233 242 242 257 262 260 255 260 264 259 261 259 258 256 261 262 265 264
326 319 320 320 321 322 321 320 324 316 311 306 295 266 252 261 186 227 232 262 225 206 209 213 229 234 269 239 235 296 261 262 261 258 253 255 258 251 255 253 252 255 254 257 258
324 321 320 320 322 322 321 322 322 310 308 296 249 200 245 257 285 262 275 245 240 231 234 221 232 232 294 247 256 265 271 266 256 253 248 261 259 248 251 257 256 258 249 249 251
339 340 330 326 324 325 324 323 315 316 322 309 166 187 253 250 286 273 249 248 237 223 242 240 216 250 242 277 260 266 263 267 248 241 235 234 266 254 239 250 255 251 249 246 249
340 339 337 334 331 327 323 326 337 37 64 98 153 234 278 291 256 263 200 246 210 203 218 258 193 229 225 246 264 233 268 258 277 252 273 235 277 279 269 271 267 257 255 250 249
340 340 338 338 335 332 334 13 101 105 180 242 97 233 242 20 331 307 249 245 227 167 196 209 210 221 215 226 241 252 241 262 265 257 297 281 273 266 267 261 265 271 267 257 254
335 335 340 340 342 0 3 1 258 200 233 274 324 283 290 307 297 250 244 223 204 200 202 197 220 225 230 228 258 276 272 276 276 277 282 275 268 264 262 262 252 254 257 255 253
330 333 331 342 1 29 36 66 54 318 305 286 267 263 272 280 277 252 245 222 204 215 203 186 232 253 243 240 237 250 263 270 281 278 274 272 274 275 261 253 251 249 251 252 249
320 327 338 347 60 49 63 68 333 211 270 288 226 264 347 177 255 273 216 219 227 226 221 246 279 323 237 230 233 239 256 277 286 298 271 271 277 261 250 242 248 245 246 251 252
333 339 348 10 103 25 97 354 331 191 277 94 138 120 177 256 239 244 222 226 214 256 236 261 279 247 239 236 225 247 231 267 279 291 286 351 289 295 282 258 228 235 237 240 235
342 348 353 28 358 49 323 328 328 192 297 85 91 110 272 259 319 139 186 186 231 216 207 230 249 225 233 242 222 260 275 278 279 272 292 271 261 236 244 256 238 233 232 234 231
341 343 353 348 315 311 317 318 182 243 208 129 75 352 350 5 275 138 187 234 285 238 230 262 249 248 250 247 211 275 273 267 256 255 259 263 237 264 306 17 359 356 319 283 258
325 331 346 337 324 319 319 213 236 243 76 46 349 343 325 317 305 259 216 208 229 229 211 226 239 230 233 235 221 231 264 263 218 195 252 175 255 258 305 349 317 317 317 308 302
330 344 66 24 336 341 298 224 247 61 8 14 324 307 284 339 250 321 252 252 223 242 274 276 212 192 187 217 250 213 222 265 283 254 301 228 239 103 57 333 342 328 333 329 327
14 159 26 351 358 341 258 227 7 9 354 336 314 289 266 297 327 310 251 276 293 218 238 231 232 153 193 186 214 157 214 290 278 253 267 245 250 181 73 356 353 356 357 350 342
184 127 42 355 346 322 217 80 93 25 334 326 287 346 295 336 317 342 267 38 336 336 281 271 262 219 153 185 201 257 94 230 219 249 251 249 269 115 359 345 352 355 359 356 350
142 187 8 347 327 65 89 78 13 8 342 305 299 289 290 300 302 304 282 77 3 336 301 243 236 173 175 213 217 187 216 194 263 276 297 302 72 353 8 1 353 360 1 4 357
156 117 335 337 83 59 89 53 353 343 335 277 284 287 279 291 277 268 261 292 355 345 322 232 265 246 242 245 261 239 242 205 250 177 257 317 327 70 46 41 18 9 1 4 9
84 88 6 314 97 105 110 140 245 348 1 342 289 292 309 293 292 260 265 271 321 17 352 345 232 242 231 219 219 223 204 115 67 21 276 310 29 100 51 38 36 29 24 13 18
147 126 110 71 79 110 117 90 103 84 96 305 301 326 328 297 266 257 267 264 270 302 211 314 253 250 270 333 275 191 187 190 188 209 280 270 291 227 225 204 61 50 38 34 29
20 95 16 150 116 92 126 80 24 343 206 304 151 54 2 301 308 263 259 265 280 215 270 148 255 224 212 356 294 248 202 200 213 239 257 300 281 315 321 276 132 95 72 51 37
119 166 177 125 133 133 82 89 319 346 287 310 247 308 313 279 292 302 323 306 278 342 287 233 266 196 200 192 246 246 237 243 245 260 265 282 288 330 337 128 155 124 104 73 66
65 6 261 146 146 165 106 90 279 321 272 247 313 311 304 318 283 289 284 269 259 279 279 256 276 182 184 182 249 253 230 206 250 274 316 322 329 332 335 23 172 131 115 102 76
Height
818 817 816 815 812 810 807 804 801 798 795 793 791 788 785 781 776 776 769 763 761 761 761 764 766 766 764 763 763 758 760 748 740 747 741 735 739 729 732 734 732 731 731 734 738
815 814 813 811 810 807 805 801 799 796 793 790 788 785 782 777 773 767 762 759 759 760 763 759 760 762 760 757 759 758 749 742 731 737 739 732 734 732 737 736 734 730 728 735 736
814 812 811 809 807 804 802 800 796 793 791 788 785 784 780 776 770 756 759 759 758 757 761 763 760 759 755 754 754 751 746 733 739 743 738 736 734 730 733 736 730 729 726 729 729
812 810 808 806 803 801 798 796 794 790 789 785 782 783 780 778 761 757 757 758 760 760 758 758 759 759 756 753 748 757 746 744 737 738 741 738 731 729 727 728 726 722 723 725 725
810 809 805 803 801 798 794 789 789 786 783 783 780 781 782 773 761 757 757 756 762 761 755 753 753 753 755 749 747 751 746 739 739 740 737 734 732 728 722 721 718 717 719 720 719
808 807 805 800 798 795 791 787 782 782 777 780 775 779 781 768 755 756 755 756 759 757 756 755 750 750 750 750 750 740 743 740 737 735 732 734 727 725 718 713 713 713 713 712 710
805 802 801 799 794 791 786 783 778 776 773 772 769 779 775 757 753 753 755 756 756 755 753 754 753 753 751 751 745 746 746 737 731 727 727 723 722 718 709 705 706 704 705 702 701
801 798 797 795 792 787 783 777 774 770 769 769 768 775 757 750 751 751 751 750 751 752 755 753 752 753 753 747 748 750 740 742 718 724 721 723 719 701 696 698 698 697 695 694 693
800 797 793 791 788 785 780 772 769 770 773 770 774 770 754 751 750 748 748 748 748 749 753 753 752 751 753 753 751 744 738 733 728 718 719 720 711 700 695 697 696 691 688 687 688
797 794 792 788 787 783 775 769 770 771 772 774 772 770 754 748 750 748 748 748 746 746 751 751 749 750 750 752 746 731 733 728 733 724 724 720 709 699 695 693 693 687 685 684 684
795 794 789 788 784 780 772 771 770 768 769 758 756 756 755 752 751 747 748 747 744 742 743 744 748 742 740 741 736 738 744 740 730 723 726 720 710 697 691 689 689 686 683 680 680
793 790 790 784 780 778 777 778 785 786 769 761 759 759 756 756 754 746 749 745 741 741 738 746 743 731 733 737 742 740 736 734 725 719 721 709 697 687 684 682 680 679 678 676 673
793 789 786 782 778 780 781 786 786 784 772 753 752 750 749 754 748 744 745 739 740 738 740 737 727 735 735 736 738 733 732 727 726 720 712 703 686 673 669 672 673 672 670 669 668
792 788 784 781 781 781 782 785 782 781 750 746 743 746 750 750 745 743 742 739 740 740 736 736 730 735 735 731 731 731 725 728 727 723 709 699 696 671 668 666 663 664 664 661 659
792 788 785 781 781 779 784 782 780 780 739 744 744 747 746 747 737 739 741 740 736 736 740 731 732 736 735 730 729 729 727 726 723 720 711 700 699 664 667 667 661 655 654 651 650
793 789 785 785 783 780 778 776 778 752 739 745 743 748 742 736 733 736 737 740 732 732 731 728 725 729 725 726 724 724 728 720 713 713 716 688 691 665 662 664 655 655 652 653 652
791 788 787 785 783 778 774 774 751 741 744 751 754 754 749 739 734 732 733 734 728 732 725 723 721 721 726 730 726 727 728 717 710 720 700 683 688 669 658 667 668 667 663 659 655
787 790 788 785 782 777 776 761 750 753 755 760 762 753 744 741 733 733 728 726 725 725 722 719 719 722 721 722 720 722 723 714 711 696 683 676 685 662 669 669 668 667 667 662 655
787 789 789 785 780 777 771 758 750 767 776 772 757 748 739 745 746 735 727 723 721 721 724 719 716 717 719 717 718 721 723 709 717 706 709 679 661 664 664 669 671 673 675 675 665
790 788 788 784 781 778 767 769 775 782 781 775 767 760 754 752 748 741 729 729 731 727 720 716 721 712 717 717 717 715 712 727 720 715 693 661 662 669 681 682 677 681 685 686 681
787 784 789 785 783 775 771 779 783 784 785 782 774 772 764 763 758 751 737 735 736 732 725 717 718 714 717 714 707 718 716 721 731 710 693 681 691 704 702 697 696 693 696 695 691
787 786 788 786 782 780 777 785 793 785 785 784 781 777 773 768 763 757 746 737 744 739 732 719 719 714 704 696 700 698 702 708 709 707 712 713 691 703 706 706 705 705 707 704 700
785 787 790 787 782 780 786 789 790 785 785 784 781 777 773 770 770 754 749 742 747 749 753 750 725 714 704 707 703 703 704 724 730 729 713 711 695 708 709 709 709 711 713 711 708
788 787 787 785 785 786 792 787 784 787 791 790 787 782 781 770 762 760 751 744 745 744 754 760 727 709 697 722 700 704 701 703 710 716 702 702 701 701 703 705 708 710 716 717 715
790 790 788 789 786 785 787 787 786 791 789 784 792 791 794 783 762 755 749 745 740 742 749 754 727 711 714 721 717 702 700 699 702 703 707 690 687 682 683 689 702 704 715 719 722
792 787 788 784 788 787 791 786 788 789 789 782 790 779 778 781 778 771 763 754 746 743 747 755 725 709 713 719 708 705 699 696 695 693 693 690 688 678 684 688 701 705 715 722 726
794 795 785 790 785 785 785 789 791 791 785 783 782 781 773 773 774 766 762 759 757 757 755 751 735 707 707 705 706 703 693 693 693 689 691 693 688 683 687 696 699 709 715 722 730